Home   Weather   Bastia   Past weeks

Flag for France Past Weather in Bastia, Corsica, France — Yesterday and Last 2 Weeks

Now
63 °F

Partly sunny.


Feels Like: 63 °F
Forecast: 50 / 63 °F
Wind: 7 mph from Southeast

Location: Bastia Airport

Current Time: Apr 28, 2017 at 6:07:03 pm

Latest Report: Apr 28, 2017 at 5:30 pm


Visibility: N/A

Pressure: 29.83 "Hg

Humidity: 39%

Dew Point: 37 °F

Location of BastiaLocation

Past Weather in Bastia — Graph

°F

Bastia Temperature Yesterday

Maximum temperature yesterday: 66 °F (at 10:30 am)
Minimum temperature yesterday: 55 °F (at 11:30 pm)
Average temperature yesterday: 60 °F

High & Low Weather Summary for the Past Weeks

 TemperatureHumidityPressure
High73 °F (Apr 16, 12:30 pm)94% (Apr 13, 11:00 pm)30.39 "Hg (Apr 13, 11:00 pm)
Low45 °F (Apr 20, 11:00 pm)18% (Apr 19, 6:30 pm)29.71 "Hg (Apr 18, 4:00 pm)
Average59 °F67%29.99 "Hg
* Reported Apr 13 5:00 pm — Apr 28 5:00 pm, Bastia, Weather by CustomWeather, © 2017

Note: Actual official high and low records may vary slightly from our data, if they occured in-between our weather recording intervals... More about our weather records

Advertising

Bastia Weather History for the Previous 24 Hours

Scroll right to see more
 ConditionsComfort  
Time TempWeatherWind HumidityBarometerVisibility
5:00 pm
Fri, Apr 28
64 °FPartly sunny.6 mph37%29.83 "HgN/A
4:30 pm64 °FPartly sunny.7 mph34%29.80 "HgN/A
4:00 pm64 °FScattered clouds.12 mph40%29.80 "HgN/A
3:30 pm64 °FScattered clouds.12 mph37%29.80 "HgN/A
3:00 pm64 °FPassing clouds.13 mph37%29.83 "HgN/A
2:30 pm64 °FPassing clouds.12 mph32%29.83 "HgN/A
2:00 pm64 °FPassing clouds.12 mph37%29.80 "HgN/A
1:30 pm64 °FPassing clouds.12 mph30%29.80 "HgN/A
1:00 pm64 °FPassing clouds.13 mph34%29.80 "HgN/A
12:30 pm64 °FPassing clouds.10 mph32%29.80 "HgN/A
12:00 pm66 °FPassing clouds.9 mph24%29.80 "HgN/A
11:30 am64 °FPassing clouds.8 mph22%29.77 "HgN/A
11:00 am64 °FPassing clouds.12 mph22%29.77 "HgN/A
10:30 am63 °FPassing clouds.13 mph25%29.77 "HgN/A
9:30 am61 °FPassing clouds.8 mph31%29.74 "HgN/A
9:00 am61 °FPassing clouds.6 mph31%29.74 "HgN/A
8:30 am59 °FPassing clouds.2 mph36%29.74 "HgN/A
8:00 am55 °FPassing clouds.3 mph44%29.74 "HgN/A
7:30 am54 °FPassing clouds.8 mph47%29.74 "HgN/A
7:00 am52 °FPassing clouds.6 mph47%29.74 "HgN/A
6:30 am54 °FPassing clouds.14 mph41%29.74 "HgN/A
6:00 am54 °FPassing clouds.9 mph44%29.74 "HgN/A
5:30 am54 °FPassing clouds.8 mph47%29.74 "HgN/A
5:00 am52 °FPassing clouds.3 mph58%29.74 "HgN/A
4:20 am52 °FPartly cloudy.5 mph67%29.74 "HgN/A
4:00 am52 °FPassing clouds.3 mph67%29.74 "HgN/A
3:30 am55 °FPartly cloudy.9 mph59%29.74 "HgN/A
3:00 am54 °FPassing clouds.8 mph72%29.74 "HgN/A
2:30 am54 °FPartly cloudy.5 mph82%29.74 "HgN/A
2:00 am55 °FMostly cloudy.3 mph82%29.74 "HgN/A
1:30 am55 °FPassing clouds.3 mph88%29.74 "HgN/A
1:00 am57 °FPassing clouds.3 mph77%29.74 "HgN/A
12:30 am57 °FMostly cloudy.12 mph77%29.74 "HgN/A
12:00 am55 °FPassing clouds.5 mph88%29.74 "HgN/A
11:30 pm
Thu, Apr 27
55 °FLight rain. Passing clouds.2 mph88%29.74 "HgN/A
11:00 pm57 °FLight rain. Passing clouds.13 mph82%29.74 "HgN/A
10:30 pm57 °FLight rain. Passing clouds.10 mph82%29.74 "HgN/A
10:06 pm57 °FLight rain. Partly cloudy.6 mph82%29.77 "HgN/A
9:00 pm57 °FRain. Passing clouds.8 mph82%29.74 "HgN/A
8:30 pm57 °FLight rain. Passing clouds.3 mph94%29.74 "HgN/A
8:04 pm57 °FLight rain. Partly sunny.3 mph82%29.74 "HgN/A
7:30 pm57 °FLight rain. Partly sunny.6 mph82%29.71 "HgN/A
7:00 pm57 °FLight rain. Partly sunny.No wind88%29.74 "HgN/A
6:30 pm59 °FPartly sunny.8 mph88%29.74 "HgN/A
6:00 pm59 °FLight rain. Partly sunny.9 mph94%29.74 "HgN/A
Weather by CustomWeather, © 2017

See weather overviewHow to use our weather pages